FENGYUN 1C DEB, 32458

Orbit data source: Space-Track

FENGYUN 1C DEB, 32458 is space debris in SSO originally from a launch on Mon, 10 May 1999 UTC launched from the Taiyaun Space Center, China (TSC). Fengyun 1C debris stems from the Chinese weather satellite Fengyun-1C, which was intentionally destroyed by a Chinese anti-satellite missile in 2007. This event dramatically increased the amount of space debris, with thousands of trackable fragments posing hazards to satellites and human spaceflight. The Fengyun 1C debris cloud has become a focal point in discussions about space sustainability and the need for international regulations to prevent the creation of new debris.

Loading next visibility...
Identifier
32458, 1999-025DBW
Orbit
SSO
Country
Flag of CNCN / PRC
Related business
Manufacturer
Unknown
Mission
Spacecraft
Bus & Motor
Unknown
Mass
Unknown
Launch date (UTC)
1999-05-10 (27 years ago)
Launch vehicle
Unknown
Launch site
Taiyaun Space Center, China (TSC)
Object type
Payload
Rocket body
Debris
Shape & HBR
Unknown shape, 0.1 m
Radar Cross Section
Small (<0.1 m²)

Expand to show TLE details & history
Last TLE update: 1 week ago

TLE from 1 week ago
0 FENGYUN 1C DEB
1 32458U 99025DBW 26142.38417764  .00004127  00000-0  77784-3 0  9992
2 32458  99.0278 182.6492 0037257 238.5346 121.2211 14.64726180701395
Epoch: 2026-05-22T09:13Z
TLE epoch observation values (Epoch: 2026-05-22T09:13:12.948Z)
Latitude
0.00005°
Longitude
164.32944°
Altitude
694.62 km
Speed
7.502 km/s
True Right ascension
12h 10m 35s
True Declination
0° 00' 00"
Sunlit
Object was in full shadow at epoch
Visualization orbit readout
Latitude
Unknown
Longitude
Unknown
Altitude
Unknown
Speed
Unknown
Apparent Right ascension
Unknown
Apparent Declination
Unknown
Sunlit
N/A
Visualization observer readout
Local Sidereal Time
18:57:36
Azimuth
Unknown
Elevation
Unknown
Doppler factor
Unknown
Orbital elements
Apogee altitude
701.348 km
Perigee altitude
648.791 km
Semi-major axis
7,053.206 km
Eccentricity
0.00373
Inclination
99.0278°
RAAN
182.6492°
Arg. of periapsis
238.5346°
True anomaly
121.58532°
Mean anomaly
121.2211°
Eccentric anomaly
121.4033°
Mean motion
3.66407 °/min
Orbital period
98.25 mins
BSTAR
0.00077784
Loading maneuver chart data...
Computing Atmospheric mass density...
Loading historical data...
Loading historical data...
Loading historical data...
Loading historical data...
Loading historical data...
Loading historical data...
Loading historical data...

Documentation

Showing up to 5 results
|